Date String (YYYY-MM-DD hh:mm:ss) UTC,Instrument flags,absolute air pressure of the measurement (hPa),sample flow rate (lpm),inlet stack bypass flow (lpm),air temperature of the measurement (°C),ambient temperature measured by the external sensor (°C),aerosol sample conditioner tube jacket temperature (°C),OPC LED temperature (°C),internal box temperature (°C),relative humidity of the measurement (%),span deviation,mass concentration of particles derived from Lorenz-Mie calculation of OPC scattering (μg/m³),mass concentration of particles derived from Lorenz-Mie calculation of OPC scattering (μg/m³),mass concentration of particles derived from Lorenz-Mie calculation of OPC scattering (μg/m³)
DateTimeUTC,F1_M11,P_M11,Q1_M11,Q2_M11,T1_M11,T2_M11,T3_M11,T4_M11,T5_M11,U1_M11,ZSPAN_M11,X0_M11,X2_M11,X1_M11
2023-08-26 03:00:00,SystemResetWarning,0841.0,5.00,000.00,030.6,027.2,000.0,038.7,030.7,34.4,0000.0,0001.40,0001.00,0000.84
2023-08-26 03:01:00,SystemResetWarning,0841.0,5.01,000.00,030.6,027.3,000.0,038.7,030.7,34.3,0000.0,0001.33,0000.98,0000.83
2023-08-26 03:02:00,SystemResetWarning,0840.9,5.01,000.00,030.6,027.4,000.0,038.7,030.8,34.4,0000.0,0001.31,0000.96,0000.82
2023-08-26 03:03:00,SystemResetWarning,0840.9,5.00,000.00,030.6,027.5,000.0,038.8,030.8,34.3,0000.0,0001.31,0000.96,0000.81
2023-08-26 03:04:00,SystemResetWarning,0840.9,4.99,000.00,030.5,027.5,000.0,038.8,030.8,34.3,0000.0,0001.31,0000.95,0000.81
2023-08-26 03:05:00,SystemResetWarning,0840.9,5.00,000.00,030.5,027.6,000.0,038.8,030.8,34.4,0000.0,0001.32,0000.96,0000.81
2023-08-26 03:06:00,SystemResetWarning,0840.9,5.00,000.00,030.5,027.6,000.0,038.8,030.9,34.6,0000.0,0001.39,0000.96,0000.80
2023-08-26 03:07:00,SystemResetWarning,0840.9,5.01,000.00,030.5,027.7,000.0,038.8,030.9,34.6,0000.0,0001.46,0000.98,0000.80
2023-08-26 03:08:00,SystemResetWarning,0840.8,5.01,000.00,030.5,027.7,000.0,038.8,030.9,34.7,0000.0,0001.35,0000.95,0000.80
2023-08-26 03:09:00,SystemResetWarning,0840.8,5.00,000.00,030.4,027.7,000.0,038.8,030.9,34.8,0000.0,0001.32,0000.95,0000.81
2023-08-26 03:10:00,SystemResetWarning,0840.7,4.99,000.00,030.4,027.8,000.0,038.8,030.9,34.8,0000.0,0001.34,0000.96,0000.80
2023-08-26 03:11:00,SystemResetWarning,0840.8,4.98,000.00,030.4,027.7,000.0,038.8,030.9,35.1,0000.0,0001.34,0000.96,0000.80
2023-08-26 03:12:00,SystemResetWarning,0840.8,5.04,000.00,030.5,026.4,000.0,038.7,030.9,34.9,0000.0,0001.28,0000.94,0000.80
2023-08-26 03:13:00,SystemResetWarning,0840.7,4.97,000.00,030.6,024.9,000.0,038.5,030.7,34.6,0000.0,0001.27,0000.94,0000.80
2023-08-26 03:14:00,SystemResetWarning,0840.7,5.02,000.00,030.6,024.6,000.0,038.4,030.4,34.6,0000.0,0001.25,0000.93,0000.79
2023-08-26 03:15:00,SystemResetWarning,0840.6,4.98,000.00,030.4,024.8,000.0,038.5,030.2,34.9,0000.0,0001.26,0000.93,0000.80
2023-08-26 03:16:00,SystemResetWarning,0840.6,5.03,000.00,030.4,025.2,000.0,038.5,030.3,35.0,0000.0,0001.23,0000.91,0000.80
2023-08-26 03:17:00,SystemResetWarning,0840.6,4.98,000.00,030.5,025.6,000.0,038.5,030.4,34.6,0000.0,0001.22,0000.93,0000.82
2023-08-26 03:18:00,SystemResetWarning,0840.6,5.02,000.00,030.6,026.0,000.0,038.5,030.5,34.3,0000.0,0001.13,0000.92,0000.81
2023-08-26 03:19:00,SystemResetWarning,0840.6,5.00,000.00,030.6,026.2,000.0,038.6,030.5,34.2,0000.0,0001.13,0000.92,0000.80
2023-08-26 03:20:00,SystemResetWarning,0840.6,4.99,000.00,030.6,026.5,000.0,038.6,030.6,34.3,0000.0,0001.13,0000.92,0000.80
2023-08-26 03:21:00,SystemResetWarning,0840.7,4.99,000.00,030.6,026.7,000.0,038.6,030.6,34.1,0000.0,0001.21,0000.94,0000.82
2023-08-26 03:22:00,SystemResetWarning,0840.7,5.01,000.00,030.6,026.9,000.0,038.7,030.6,34.1,0000.0,0001.26,0000.96,0000.82
2023-08-26 03:23:00,SystemResetWarning,0840.7,5.01,000.00,030.5,027.0,000.0,038.7,030.6,34.2,0000.0,0001.29,0000.97,0000.83
2023-08-26 03:24:00,SystemResetWarning,0840.7,4.99,000.00,030.5,027.1,000.0,038.7,030.7,34.2,0000.0,0001.33,0000.99,0000.84
2023-08-26 03:25:00,SystemResetWarning,0840.7,5.00,000.00,030.5,027.2,000.0,038.7,030.7,34.1,0000.0,0001.33,0001.00,0000.85
2023-08-26 03:26:00,SystemResetWarning,0840.7,5.00,000.00,030.5,027.3,000.0,038.7,030.7,34.2,0000.0,0001.34,0001.00,0000.85
2023-08-26 03:27:00,SystemResetWarning,0840.7,4.99,000.00,030.5,027.4,000.0,038.7,030.7,34.3,0000.0,0001.31,0001.00,0000.86
2023-08-26 03:28:00,SystemResetWarning,0840.7,5.00,000.00,030.4,027.4,000.0,038.8,030.7,34.3,0000.0,0001.33,0001.01,0000.87
2023-08-26 03:29:00,SystemResetWarning,0840.7,5.00,000.00,030.4,027.5,000.0,038.8,030.8,34.4,0000.0,0001.36,0001.03,0000.87
2023-08-26 03:30:00,SystemResetWarning,0840.8,5.00,000.00,030.4,027.5,000.0,038.8,030.8,34.4,0000.0,0001.37,0001.04,0000.87
2023-08-26 03:31:00,SystemResetWarning,0840.8,5.01,000.00,030.4,027.6,000.0,038.8,030.8,34.4,0000.0,0001.44,0001.06,0000.88
2023-08-26 03:32:00,SystemResetWarning,0840.7,5.00,000.00,030.3,027.6,000.0,038.8,030.9,34.3,0000.0,0001.36,0001.03,0000.87
2023-08-26 03:33:00,SystemResetWarning,0840.7,4.99,000.00,030.3,027.7,000.0,038.8,030.9,34.5,0000.0,0001.28,0001.00,0000.87
2023-08-26 03:34:00,SystemResetWarning,0840.7,5.00,000.00,030.3,027.7,000.0,038.8,030.9,34.5,0000.0,0001.34,0001.02,0000.87
2023-08-26 03:35:00,SystemResetWarning,0840.8,5.01,000.00,030.3,027.8,000.0,038.7,030.9,34.5,0000.0,0001.33,0001.01,0000.86
2023-08-26 03:36:00,SystemResetWarning,0840.8,5.01,000.00,030.3,027.8,000.0,038.7,030.9,34.6,0000.0,0001.32,0001.00,0000.84
2023-08-26 03:37:00,SystemResetWarning,0840.8,4.99,000.00,030.2,026.5,000.0,038.6,030.8,34.6,0000.0,0001.26,0000.98,0000.83
2023-08-26 03:38:00,SystemResetWarning,0840.7,4.99,000.00,030.2,025.0,000.0,038.4,030.5,34.6,0000.0,0001.27,0000.98,0000.82
2023-08-26 03:39:00,SystemResetWarning,0840.8,5.00,000.00,030.0,024.6,000.0,038.3,030.2,34.8,0000.0,0001.42,0000.97,0000.80
2023-08-26 03:40:00,SystemResetWarning,0840.7,5.00,000.00,029.9,024.8,000.0,038.3,030.1,35.1,0000.0,0002.05,0000.96,0000.80
2023-08-26 03:41:00,SystemResetWarning,0840.7,5.03,000.00,029.9,025.2,000.0,038.3,030.2,35.0,0000.0,0002.19,0000.97,0000.80
2023-08-26 03:42:00,SystemResetWarning,0840.7,4.97,000.00,030.1,025.6,000.0,038.3,030.4,34.5,0000.0,0002.15,0000.96,0000.81
2023-08-26 03:43:00,SystemResetWarning,0840.7,5.02,000.00,030.2,025.9,000.0,038.3,030.4,34.3,0000.0,0002.17,0000.98,0000.82
2023-08-26 03:44:00,SystemResetWarning,0840.7,5.00,000.00,030.2,026.2,000.0,038.3,030.4,34.3,0000.0,0002.59,0000.99,0000.83
2023-08-26 03:45:00,SystemResetWarning,0840.7,5.00,000.00,030.2,026.5,000.0,038.3,030.5,34.2,0000.0,0002.93,0001.00,0000.83
2023-08-26 03:46:00,SystemResetWarning,0840.7,4.99,000.00,030.2,026.7,000.0,038.4,030.5,34.1,0000.0,0002.98,0001.03,0000.85
2023-08-26 03:47:00,SystemResetWarning,0840.7,5.00,000.00,030.2,026.8,000.0,038.4,030.5,34.0,0000.0,0003.03,0001.06,0000.88
2023-08-26 03:48:00,SystemResetWarning,0840.7,5.00,000.00,030.2,027.0,000.0,038.4,030.5,34.1,0000.0,0003.10,0001.12,0000.92
2023-08-26 03:49:00,SystemResetWarning,0840.8,5.01,000.00,030.2,027.1,000.0,038.4,030.6,34.6,0000.0,0003.17,0001.16,0000.96
2023-08-26 03:50:00,SystemResetWarning,0840.8,5.02,000.00,030.2,027.2,000.0,038.5,030.6,34.8,0000.0,0003.18,0001.19,0000.99
2023-08-26 03:51:00,SystemResetWarning,0840.8,5.00,000.00,030.2,027.3,000.0,038.5,030.6,34.8,0000.0,0002.48,0001.24,0001.04
2023-08-26 03:52:00,SystemResetWarning,0840.7,5.00,000.00,030.2,027.3,000.0,038.5,030.6,34.8,0000.0,0002.44,0001.31,0001.09
2023-08-26 03:53:00,SystemResetWarning,0840.7,4.99,000.00,030.1,027.4,000.0,038.5,030.6,34.9,0000.0,0002.54,0001.37,0001.15
2023-08-26 03:54:00,SystemResetWarning,0840.6,5.00,000.00,030.1,027.5,000.0,038.5,030.7,34.7,0000.0,0002.65,0001.45,0001.20
2023-08-26 03:55:00,SystemResetWarning,0840.6,5.00,000.00,030.1,027.5,000.0,038.5,030.7,34.6,0000.0,0002.45,0001.53,0001.26
2023-08-26 03:56:00,SystemResetWarning,0840.6,5.01,000.00,030.1,027.6,000.0,038.5,030.7,34.6,0000.0,0002.23,0001.62,0001.33
2023-08-26 03:57:00,SystemResetWarning,0840.6,5.01,000.00,030.1,027.6,000.0,038.5,030.7,34.6,0000.0,0002.29,0001.67,0001.38
2023-08-26 03:58:00,SystemResetWarning,0840.6,5.00,000.00,030.1,027.6,000.0,038.5,030.7,34.6,0000.0,0002.49,0001.76,0001.43
2023-08-26 03:59:00,SystemResetWarning,0840.6,4.99,000.00,030.0,027.6,000.0,038.5,030.7,34.7,0000.0,0002.55,0001.81,0001.48
